This is the latest recevied weather packets stored in our database for station/object IW8PDD-3. If no packets are shown the sender has not sent any weather packets the latest 10 day(s).
| Time | Temp. | Humidity | Pressure | Rain* | Wind** | Luminosity | Snow |
|---|---|---|---|---|---|---|---|
| 1777629964 | 17.22° C | 88% | 1019.6 hPa | - | - | - | - |
| 1777628761 | 17.22° C | 87% | 1019.5 hPa | - | - | - | - |
| 1777627557 | 17.22° C | 87% | 1019.4 hPa | - | - | - | - |
| 1777626354 | 17.22° C | 87% | 1019.3 hPa | - | - | - | - |
| 1777625150 | 17.22° C | 87% | 1019.1 hPa | - | - | - | - |
| 1777623947 | 16.67° C | 87% | 1019.1 hPa | - | - | - | - |
| 1777621540 | 16.67° C | 86% | 1018.4 hPa | - | - | - | - |
| 1777620391 | 16.11° C | 85% | 1018.3 hPa | - | - | - | - |
| 1777620337 | 16.11° C | 85% | 1018.3 hPa | - | - | - | - |
| 1777619133 | 15.56° C | 84% | 1018.2 hPa | - | - | - | - |
| 1777616726 | 15.56° C | 74% | 1017.9 hPa | - | - | - | - |
| 1777615523 | 17.22° C | 73% | 1017.8 hPa | - | - | - | - |
| 1777613116 | 16.67° C | 71% | 1017.4 hPa | - | - | - | - |
| 1777611951 | 16.67° C | 71% | 1017.5 hPa | - | - | - | - |
| 1777611912 | 16.67° C | 71% | 1017.5 hPa | - | - | - | - |
| 1777610709 | 17.22° C | 70% | 1017.4 hPa | - | - | - | - |
| 1777609505 | 17.22° C | 69% | 1017.3 hPa | - | - | - | - |
| 1777608302 | 17.22° C | 69% | 1017 hPa | - | - | - | - |
| 1777607098 | 17.78° C | 69% | 1017.1 hPa | - | - | - | - |
| 1777604692 | 17.78° C | 68% | 1017.4 hPa | - | - | - | - |
| 1777603488 | 17.22° C | 68% | 1017.5 hPa | - | - | - | - |
| 1777602285 | 17.22° C | - | - | - | - | - | - |
| 1777602285 | 17.22° C | 68% | 1017.3 hPa | - | - | - | - |
| 1777601081 | 17.78° C | 68% | 1017.4 hPa | - | - | - | - |
| 1777599878 | 17.78° C | 68% | 1017.4 hPa | - | - | - | - |
* Rain since midnight (hover to see other rain measurements)
** Current wind speed in m/s (hover to see current wind gust speed)